SMDC-ONE 3.1

operational
NORAD ID: 39474 Int'l Des: 2013-072 Owner: SMDC Country: US
LEOCIRCULARRETROGRADE

About SMDC-ONE 3.1

Description loading...

Live Position

Loading 3D Globe...

Upcoming Passes

Altitude History

Altitude vs Time

uPlot chart will show altitude changes over time

Two-Line Element Set

1 39474U 13072N 26061.46825901 .00069365 00000-0 11678-2 0 9994
2 39474 120.4554 62.1106 0066155 290.5425 68.8573 15.48716880100978
Epoch: Mar 2, 2026 • Age: 28 hours

Current Status

Altitude 393.3 km
Velocity 7.69 km/s
Sub-Earth Point -25.62°S, 142.01°W
Launch Date Dec 6, 2013
Age 12.2 years
Type other

Technical Details

Classification Payload
Mass 4.00 kg
Dry Mass 4.00 kg
Total Mass 4.00 kg
Length 0.30 m
Diameter 0.10 m
Span 0.30 m
Shape Box
Manufacturer DUCOMM
Bus Type Cubesat 3U
Phase Status In Orbit
Owner/State SMDC/US

Large Constellations

Loading constellations...